Regional Weather Roundup
Issued by NWS Upton, NY

Current Version | Previous Version | Text Only | Print | Product List | Glossary On
Versions: 1 2 3 4 5 6 7 8 9 10 11 12 13 14 15 16 17 18 19 20 21 22 23 24 25 26 27 28 29 30 31 32 33 34 35 36 37 38 39 40 41 42 43 44 45 46 47 48 49 50
000
ASUS41 KOKX 080704
RWROKX

REGIONAL WEATHER ROUNDUP
NATIONAL WEATHER SERVICE NEW YORK NY
200 AM EST MON FEB 08 2016

NOTE: "FAIR" INDICATES FEW OR NO CLOUDS BELOW 12,000 FEET WITH NO
SIGNIFICANT WEATHER AND/OR OBSTRUCTIONS TO VISIBILITY.

NYZ071-072-176-178-NJZ106-104-080800-
NEW YORK CITY METRO AREA


CITY           SKY/WX    TMP DP  RH WIND       PRES   REMARKS
CENTRAL PARK   MOCLDY    38  20  48 NE14      29.84F WCI  30
LAGUARDIA APRT CLOUDY    39  23  52 NE17G24   29.82F WCI  30
KENNEDY INTL   CLOUDY    38  25  59 NE17G26   29.82F WCI  28
NEWARK/LIBERTY CLOUDY    38  23  55 N15       29.82F WCI  29
BRNX BOT. GARD   N/A     37  21  52 N9        29.85R WCI  31
TETERBORO      CLOUDY    37  21  52 N9        29.83F WCI  30
$$

NYZ177-179-078>081-080800-
LONG ISLAND NEW YORK

CITY           SKY/WX    TMP DP  RH WIND       PRES   REMARKS
FARMINGDALE    MOCLDY    38  29  70 NE17G26   29.80F WCI  28
ISLIP          CLOUDY    37  30  75 NE20      29.77F WCI  27
SHIRLEY        CLOUDY    37  31  78 NE10G22   29.79F WCI  30
RIVERHEAD        N/A     37  32  81 E5        29.77F WCI  34
WESTHAMPTON    CLOUDY    38  31  76 NE21G28   29.80F WCI  28
EAST HAMPTON   CLOUDY    38  32  78 NE16G26   29.81F WCI  29
MONTAUK POINT    N/A     40  33  76 NE17G29   29.81F WCI  31
$$

NYZ052-065-067-080800-
HUDSON VALLEY

CITY           SKY/WX    TMP DP  RH WIND       PRES   REMARKS
WHITE PLAINS   MOCLDY    35  24  64 NE13G21   29.81F WCI  26
NEWBURGH       NOT AVBL
MONTGOMERY     CLOUDY    33  23  66 NE12      29.87F WCI  24
POUGHKEEPSIE   CLOUDY    33  22  63 N7        29.89F WCI  27
ALBANY         CLOUDY    27  20  75 N5        29.96F WCI  22
$$

NJZ001-105-106-008-010-013-015-019>022-104-080800-
NEW JERSEY

CITY           SKY/WX    TMP DP  RH WIND       PRES   REMARKS
NEWARK/LIBERTY CLOUDY    38  23  55 N15       29.82F WCI  29
TETERBORO      CLOUDY    37  21  52 N9        29.83F WCI  30
CALDWELL       CLOUDY    37  21  52 NE8       29.84F WCI  31
MORRISTOWN     CLOUDY    36  21  55 NE6       29.84F WCI  31
SOMERVILLE     CLOUDY    38  21  50 N7        29.81F WCI  33
SUSSEX         CLOUDY    34  22  61 NE8       29.85F WCI  27
ANDOVER          N/A     31  22  69 CALM      29.84F
TRENTON        MOCLDY    37  24  59 NE13      29.78F WCI  29
MILLVILLE      CLOUDY    39  30  70 N20G26    29.72F WCI  29
ATLANTIC CITY  CLOUDY    40  33  76 NE21G33   29.70F WCI  30
WRIGHTSTOWN    CLOUDY    37  34  90 N13       29.73F WCI  29
TOMS RIVER     CLOUDY    37  27  65 NE18G26   29.75F WCI  27
BELMAR         CLOUDY    37  25  60 N16G23    29.76F WCI  28
$$

PAZ047>061-062-071-080800-
EASTERN PENNSYLVANIA

CITY           SKY/WX    TMP DP  RH WIND       PRES   REMARKS
PHILADELPHIA   CLOUDY    40  23  50 N17G24    29.78F WCI  31
ALLENTOWN      MOCLDY    35  20  54 NE8       29.82F WCI  29
SCRANTON       PTCLDY    34  19  54 E7        29.82F WCI  28
$$

CTZ002-004>006-009-010-012-RIZ004-006-007-MAZ004-011-015-080800-
SOUTHERN NEW ENGLAND
 IN CT

CITY           SKY/WX    TMP DP  RH WIND       PRES   REMARKS
BRADLEY INTL   CLOUDY    34  25  69 N13       29.91F WCI  25
HARTFORD       MOCLDY    35  27  72 N12       29.90F WCI  27
DANBURY        CLOUDY    34  24  67 NE8       29.86F WCI  27
WTRBRY/OXFORD  CLOUDY    34  19  55 NE14G23   29.84F WCI  24
BRIDGEPORT     MOCLDY    38  29  70 NE14      29.84F WCI  30
MERIDEN        MOCLDY    35  26  69 N13       29.87F WCI  26
NEW HAVEN      CLOUDY    36  28  73 N16       29.83F WCI  26
CHESTER        FAIR      36  30  80 NE13G20   29.83F WCI  27
GROTON         CLOUDY    37  32  82 NE20G29   29.83F WCI  27
WILLIMANTIC    CLOUDY    37  28  70 NE14      29.88F WCI  28

 IN RI

CITY           SKY/WX    TMP DP  RH WIND       PRES   REMARKS
PROVIDENCE     CLOUDY    37  30  75 NE18      29.88F WCI  27
BLOCK ISLAND   CLOUDY    39  34  81 NE24G36   29.79F WCI  28
WESTERLY       CLOUDY    37  30  75 NE12G22   29.83F WCI  29

 IN MA

CITY           SKY/WX    TMP DP  RH WIND       PRES   REMARKS
BOSTON         CLOUDY    37  29  72 NE29G38   29.95F WCI  25
WORCESTER      CLOUDY    30  25  81 NE16G23   29.89F WCI  19
WESTFIELD      CLOUDY    32  24  72 N8        29.93F WCI  25
PROVINCETOWN   CLOUDY    38  29  70 NE28G37   29.91F WCI  26
NANTUCKET      CLOUDY    42  31  64 NE32G46   29.79F
$$

ANZ330-335-338-340-345-350-353-355-080800-
COASTAL MARINE OBSERVATIONS


STATION/POSITION TIME  SKY/WX   TEMP    WIND        PRES    VSBY  WAVE
                                AIR SEA DIR/SP/G                  HT/PER
                 (UTC)          (F)     (DEG/KT/KT) (MB)    (MI)  (FT/S)
NY HARB ENTRANCE 0550            40 44   30/ 25/ 31 1008.6          5/ 6
4S FIRE IS       NOT AVBL
20S FIRE ISLAND  0550            42 44   40/ 27/ 33 1007.5          8/ 6
GREAT SOUTH BAY  NOT AVBL
23SW MTP         0650            42 45   50/ 31/ 37 1006.4         10/ 6
HUDSON CANYON    0550            45 50              1003.3         10/ 7
KINGS POINT      0600            38 39   70/  7/ 12 1010.4
EXECUTION ROCKS  NOT AVBL
CENTRAL LI SOUND 0600            38      40/ 19/ 21   N/A           3/ 4
EASTERN LI SOUND 0600            39 42   40/ 17/ 23   N/A
ROBBINS REEF     0600            39      40/ 23/ 28 1009.6
$$


>>>>>>>>>>>>>>>>>>>>>>>>>>>> KEY <<<<<<<<<<<<<<<<<<<<<<<<<<<
>                                                          <
>     SKY/WX - SKY CONDITION/PRESENT WEATHER               <
>     TMP    - TEMPERATURE IN FAHRENHEIT                   <
>     DP     - DEWPOINT IN FAHRENHEIT                      <
>     RH     - RELATIVE HUMIDITY IN PERCENT                <
>     WIND   - DIRECTION AND SPEED IN MPH                  <
>     PRES   - MEAN SEA LEVEL PRESSURE IN INCHES OF HG     <
>     WCI    - WIND CHILL INDEX                            <
>     VSB    - VISIBILITY IN MILES                         <
>     HX     - HEAT INDEX                                  <
>     TC     - TEMPERATURE IN CELSIUS                      <
>     VRB    - VARIABLE WIND DIRECTION                     <
>                                                          <
>>>>>>>>>>>>>>>>>>>>>>>>>>>> KEY <<<<<<<<<<<<<<<<<<<<<<<<<<<





USA.gov is the U.S. government's official web portal to all federal, state and local government web resources and services.